Tracking 29892 objects as of 21-Nov-2024
HD Live streaming from Space Station
objects crossing your sky now

STARLINK-1892

Track STARLINK-1892 now!
10-day predictions
STARLINK-1892 is classified as:


NORAD ID: 46743
Int'l Code: 2020-074E
Perigee: 553.1 km
Apogee: 555.8 km
Inclination: 53.1 °
Period: 95.6 minutes
Semi major axis: 6925 km
RCS: Unknown
Launch date: October 24, 2020
Source: United States (US)
Launch site: AIR FORCE EASTERN TEST RANGE (AFETR)
Your satellite tracking list
Your tracking list is empty




NASA's NSSDC Master Catalog

Two Line Element Set (TLE):
1 46743U 20074E   24325.87793386 -.00004647  00000-0 -29344-3 0  9992
2 46743  53.0557 288.6450 0001947 102.7659 257.3547 15.06377379225285
Source of the keplerian elements: AFSPC